[[{"header":{"parameterUnit":"m.s-1","parameterCategory":1,"la1":30.2991,"la2":30.254,"lo1":-89.0895,"lo2":-89.0444,"dy":0.0017,"dx":0.0017,"nx":28,"ny":28,"refTime":"2023-10-07T21:00:00:Z","depth":0,"parameterNumber":2,"parameterNumberName":"U-component_of_WINDS"},"data":[0,0,0,0,0,0,0,0,0,0,0,0,0,0,0,0,0,0,0,0,0,0,0,0,0,0,0,0,0,0,0,0,0,0,0,0,0,0,0,0,0,0,0,0,0,0,0,0,0,0,0,0,0,0,0,0,0,0,-0.9541,-0.9542,0,-0.9632,-0.9633,-0.9634,-0.97,-0.9701,-0.9701,-0.9702,-0.9792,-0.9794,-0.9796,0,0,0,0,0,0,0,0,0,0,0,0,0,-0.9425,-0.9426,-0.9541,-0.9542,-0.9544,-0.9632,-0.9633,-0.9634,-0.97,-0.9701,-0.9702,-0.9702,-0.9792,-0.9794,-0.9796,0,0,0,0,0,0,0,0,0,0,0,0,0,-0.9491,-0.9427,-0.9541,-0.9587,-0.9592,-0.9631,-0.9633,-0.9634,-0.97,-0.9701,-0.9702,-0.9703,-0.9791,-0.9794,-0.9797,-0.9796,0,0,-0.9805,-0.9806,0,0,0,0,0,0,0,0,-0.9487,-0.9495,-0.9579,-0.9584,-0.959,-0.9656,-0.9625,-0.9689,-0.97,-0.9659,-0.9702,-0.9703,-0.9746,-0.9753,-0.9768,-0.9801,-0.9805,-0.9805,-0.9807,-0.9808,-0.9809,0,0,0,0,0,0,0,-0.9482,-0.9492,-0.9577,-0.958,-0.9587,-0.9603,-0.9613,-0.9637,-0.9696,-0.9663,-0.9668,-0.9678,-0.9749,-0.9765,-0.977,-0.9806,-0.9805,-0.9808,-0.981,-0.9811,-0.9843,-0.9842,0,0,0,0,0,0,-0.9471,-0.9487,-0.9574,-0.958,-0.954,-0.9604,-0.9616,-0.9634,-0.9696,-0.9707,-0.9677,-0.968,-0.976,-0.9767,-0.9774,-0.9777,-0.9808,-0.9811,-0.9813,-0.9844,-0.9843,-0.9842,0,0,0,0,0,0,-0.9468,-0.9478,-0.9571,-0.9535,-0.9548,-0.9605,-0.9625,-0.9635,-0.9651,-0.9707,-0.9718,-0.9682,-0.9761,-0.977,-0.979,-0.9781,-0.9812,-0.9815,-0.9845,-0.9844,-0.9842,-0.9784,0,0,0,0,0,0,-0.9465,-0.9477,-0.9477,-0.9535,-0.955,-0.9586,-0.9624,-0.9636,-0.9656,-0.9661,-0.9715,-0.9725,-0.9762,-0.9786,-0.9793,-0.9786,-0.9817,-0.9846,-0.9844,-0.9843,-0.9787,-0.9781,-0.9776,0,0,0,0,0,-0.946,-0.9457,-0.9477,-0.9487,-0.9552,-0.9585,-0.9594,-0.9638,-0.9655,-0.9656,-0.9692,-0.9723,-0.9781,-0.9787,-0.9796,-0.9789,-0.9847,-0.9845,-0.9843,-0.979,-0.9782,-0.9776,0,0,0,0,0,0,-0.9397,-0.9465,-0.9488,-0.9504,-0.9538,-0.9596,-0.9599,-0.9628,-0.9658,-0.9662,-0.9715,-0.9726,-0.9741,-0.9768,-0.9773,-0.9792,-0.9818,-0.9818,-0.9774,-0.9768,-0.9762,-0.9755,-0.9819,0,0,0,0,0,-0.9385,-0.9406,-0.9465,-0.9473,-0.9489,-0.9541,-0.9557,-0.9588,-0.9626,-0.964,-0.9678,-0.9713,-0.9739,-0.9755,-0.9782,-0.9792,-0.9804,-0.9791,-0.9786,-0.9781,-0.978,-0.9786,-0.9781,-0.9836,-0.9836,-0.9836,0,0,-0.936,-0.94,-0.941,-0.9462,-0.9492,-0.9512,-0.9553,-0.9573,-0.9589,-0.9643,-0.9665,-0.9694,-0.9736,-0.9751,-0.9759,-0.9773,-0.9767,-0.9779,-0.9774,-0.9776,-0.9784,-0.9778,-0.9774,-0.9835,-0.9835,-0.9835,0,0,-0.9325,-0.9358,-0.9368,-0.9397,-0.9443,-0.9478,-0.948,-0.9534,-0.9555,-0.9578,-0.9619,-0.9639,-0.9683,-0.9711,-0.9731,-0.9707,-0.9736,-0.9715,-0.9685,-0.969,-0.9686,-0.9682,-0.9673,-0.9669,-0.9714,-0.9713,-0.9713,0,-0.9287,-0.9321,-0.9369,-0.9387,-0.9408,-0.9459,-0.9469,-0.9495,-0.9547,-0.956,-0.9576,-0.9632,-0.9664,-0.9686,-0.968,-0.9695,-0.9699,-0.9708,-0.9683,-0.968,-0.9677,-0.9668,-0.9665,-0.971,-0.9711,-0.9711,-0.9711,0,-0.9273,-0.9295,-0.9298,-0.9347,-0.9369,-0.9382,-0.9432,-0.9448,-0.9477,-0.9509,-0.9532,-0.9572,-0.9608,-0.9616,-0.9645,-0.9642,-0.9649,-0.9673,-0.9699,-0.9668,-0.9661,-0.9658,-0.9706,-0.9707,-0.9708,-0.9709,0,0,-0.9199,-0.9275,-0.9275,-0.9298,-0.9352,-0.937,-0.9386,-0.9423,-0.9435,-0.9469,-0.9483,-0.952,-0.9542,-0.9565,-0.9597,-0.9602,-0.9579,-0.9626,-0.9627,-0.9614,-0.9578,-0.9559,-0.9554,-0.96,-0.9599,-0.9599,-0.9574,0,-0.9171,-0.9203,-0.9247,-0.9264,-0.9285,-0.9334,-0.9348,-0.9383,-0.9414,-0.9436,-0.947,-0.9495,-0.9523,-0.9537,-0.9544,-0.958,-0.9572,-0.9583,-0.9612,-0.9613,-0.9599,-0.9551,-0.953,-0.9505,-0.9572,-0.9571,-0.9571,0,-0.9143,-0.9175,-0.9194,-0.9247,-0.9257,-0.9269,-0.9305,-0.9326,-0.9366,-0.9388,-0.9414,-0.9449,-0.9468,-0.9493,-0.9519,-0.9525,-0.954,-0.956,-0.956,-0.9563,-0.9589,-0.9551,-0.9498,-0.9493,-0.9567,-0.9568,-0.9568,0,-0.9086,-0.9134,-0.9151,-0.917,-0.9231,-0.9238,-0.9264,-0.9306,-0.9324,-0.9356,-0.9369,-0.9402,-0.942,-0.9445,-0.9488,-0.9502,-0.9509,-0.9538,-0.9527,-0.9526,-0.9525,-0.9525,-0.9472,-0.9537,-0.9537,-0.9537,-0.9537,0,-0.905,-0.9059,-0.9126,-0.9137,-0.9149,-0.9199,-0.921,-0.924,-0.9276,-0.9293,-0.9338,-0.9353,-0.9409,-0.9431,-0.9465,-0.9481,-0.9489,-0.9507,-0.9515,-0.9502,-0.9499,-0.9511,-0.9514,-0.9536,-0.9536,-0.9537,-0.9537,0,-0.8987,-0.9033,-0.9055,-0.9112,-0.9127,-0.9133,-0.9181,-0.9193,-0.9227,-0.9248,-0.9256,-0.9309,-0.9337,-0.9383,-0.9423,-0.9446,-0.9456,-0.9471,-0.9442,-0.9447,-0.9434,-0.9434,-0.9386,-0.9381,-0.945,-0.9449,-0.9448,0,-0.896,-0.8968,-0.9027,-0.9041,-0.9066,-0.9089,-0.9109,-0.9159,-0.9177,-0.9224,-0.923,-0.9261,-0.9289,-0.933,-0.9372,-0.9403,-0.9419,-0.94,-0.9424,-0.941,-0.9417,-0.9416,-0.9416,-0.9394,-0.9393,-0.9392,-0.9392,0,-0.8907,-0.8929,-0.8956,-0.899,-0.9012,-0.9042,-0.9074,-0.9083,-0.914,-0.9159,-0.9188,-0.9209,-0.9251,-0.9281,-0.9319,-0.9345,-0.9377,-0.9384,-0.9383,-0.9369,-0.9351,-0.9359,-0.9425,-0.9385,-0.9385,-0.9386,-0.9386,-0.9386,-0.8861,-0.887,-0.8912,-0.8941,-0.897,-0.8999,-0.9012,-0.9049,-0.9074,-0.9112,-0.914,-0.9167,-0.9207,-0.9261,-0.9285,-0.9307,-0.9321,-0.932,-0.932,-0.9318,-0.9313,-0.9349,-0.9314,-0.9314,-0.9315,-0.9315,-0.9315,0,-0.8809,-0.8838,-0.8864,-0.8907,-0.8929,-0.8959,-0.8996,-0.9012,-0.9035,-0.907,-0.9096,-0.9129,-0.9159,-0.9204,-0.9236,-0.9245,-0.926,-0.9252,-0.9251,-0.9256,-0.9298,-0.9295,-0.9238,-0.9238,-0.9238,-0.9238,-0.9238,-0.9238,-0.8784,-0.8801,-0.8829,-0.8861,-0.8891,-0.8918,-0.8936,-0.8963,-0.8991,-0.9026,-0.9051,-0.908,-0.9119,-0.9155,-0.9183,-0.9196,-0.9205,-0.9191,-0.9208,-0.9246,-0.9253,-0.926,-0.9257,-0.9193,-0.9193,-0.9164,-0.9164,-0.9164]},{"header":{"parameterUnit":"m.s-1","parameterCategory":1,"la1":30.2991,"la2":30.254,"lo1":-89.0895,"lo2":-89.0444,"dy":0.0017,"dx":0.0017,"nx":28,"ny":28,"refTime":"2023-10-07T21:00:00:Z","depth":0,"parameterNumber":3,"parameterNumberName":"V-component_of_WINDS"},"data":[0,0,0,0,0,0,0,0,0,0,0,0,0,0,0,0,0,0,0,0,0,0,0,0,0,0,0,0,0,0,0,0,0,0,0,0,0,0,0,0,0,0,0,0,0,0,0,0,0,0,0,0,0,0,0,0,0,0,-1.0047,-1.0046,0,-0.9978,-0.9977,-0.9976,-0.9941,-0.9941,-0.9941,-0.9941,-0.9873,-0.9871,-0.987,0,0,0,0,0,0,0,0,0,0,0,0,0,-1.015,-1.0148,-1.0047,-1.0046,-1.0045,-0.9978,-0.9977,-0.9976,-0.9941,-0.9941,-0.9941,-0.9941,-0.9874,-0.9872,-0.9869,0,0,0,0,0,0,0,0,0,0,0,0,0,-1.0096,-1.0148,-1.0047,-1.0019,-1.0016,-0.9978,-0.9977,-0.9976,-0.9941,-0.9941,-0.9941,-0.9941,-0.9874,-0.9872,-0.9869,-0.9854,0,0,-0.9861,-0.986,0,0,0,0,0,0,0,0,-1.0099,-1.0092,-1.0024,-1.0021,-1.0018,-0.9968,-0.9989,-0.9935,-0.9941,-0.997,-0.9941,-0.9941,-0.9905,-0.99,-0.9887,-0.9851,-0.9848,-0.9861,-0.9859,-0.9858,-0.9857,0,0,0,0,0,0,0,-1.0103,-1.0095,-1.002,-1.0023,-1.0019,-1.0011,-1.0003,-0.9978,-0.9939,-0.9967,-0.9964,-0.9957,-0.9903,-0.989,-0.9885,-0.9847,-0.9861,-0.9859,-0.9857,-0.9856,-0.9795,-0.9795,0,0,0,0,0,0,-1.011,-1.0098,-1.0022,-1.0018,-1.0059,-1.0009,-1.0001,-0.9984,-0.9939,-0.9932,-0.9957,-0.9955,-0.9894,-0.9888,-0.9883,-0.9862,-0.9858,-0.9856,-0.9854,-0.9795,-0.9795,-0.9795,0,0,0,0,0,0,-1.0113,-1.0104,-1.0025,-1.0057,-1.0046,-1.0008,-0.9989,-0.9983,-0.9969,-0.9931,-0.9924,-0.995,-0.9894,-0.9886,-0.9861,-0.9859,-0.9854,-0.9852,-0.9795,-0.9795,-0.9795,-0.982,0,0,0,0,0,0,-1.0116,-1.0105,-1.0098,-1.0057,-1.0045,-1.0004,-0.9989,-0.9981,-0.9964,-0.9962,-0.9923,-0.9916,-0.9893,-0.9865,-0.9859,-0.9855,-0.985,-0.9796,-0.9795,-0.9795,-0.9819,-0.9821,-0.9822,0,0,0,0,0,-1.012,-1.0109,-1.0098,-1.0089,-1.0035,-1.0004,-0.9997,-0.9969,-0.9964,-0.9958,-0.9933,-0.9918,-0.9861,-0.9863,-0.9855,-0.9851,-0.9796,-0.9795,-0.9795,-0.9819,-0.9821,-0.9822,0,0,0,0,0,0,-1.0152,-1.0103,-1.0091,-1.0066,-1.0039,-0.9998,-0.9988,-0.9972,-0.9947,-0.9946,-0.9914,-0.9906,-0.9884,-0.9865,-0.9869,-0.9834,-0.9827,-0.9825,-0.9847,-0.9848,-0.985,-0.9855,-0.9848,0,0,0,0,0,-1.0156,-1.0133,-1.0092,-1.0074,-1.0061,-1.0027,-1.0012,-0.9994,-0.9965,-0.9954,-0.9927,-0.9901,-0.9877,-0.9862,-0.9838,-0.9817,-0.9808,-0.981,-0.9812,-0.9813,-0.9812,-0.9799,-0.98,-0.9795,-0.9795,-0.9795,0,0,-1.0164,-1.0135,-1.0122,-1.008,-1.0057,-1.0035,-1.0018,-0.9995,-0.9979,-0.9951,-0.9925,-0.9905,-0.9873,-0.985,-0.9839,-0.9834,-0.9811,-0.9813,-0.9814,-0.9812,-0.9799,-0.98,-0.98,-0.9795,-0.9795,-0.9795,0,0,-1.0168,-1.0143,-1.0125,-1.0102,-1.0068,-1.0045,-1.0041,-1.0002,-0.9987,-0.996,-0.9939,-0.9919,-0.9879,-0.9857,-0.9841,-0.9836,-0.9821,-0.9829,-0.9837,-0.9825,-0.9825,-0.9826,-0.9824,-0.9823,-0.9828,-0.9829,-0.9829,0,-1.0183,-1.0148,-1.0118,-1.0097,-1.0079,-1.0051,-1.0033,-1.0013,-0.9973,-0.9961,-0.9956,-0.9904,-0.9881,-0.9852,-0.9851,-0.9839,-0.9834,-0.9833,-0.9828,-0.9827,-0.9827,-0.9825,-0.9824,-0.983,-0.983,-0.9829,-0.9829,0,-1.0167,-1.0144,-1.0134,-1.0094,-1.0075,-1.0055,-1.0024,-1.0008,-0.9992,-0.997,-0.9943,-0.9915,-0.9884,-0.9876,-0.986,-0.9845,-0.9843,-0.9833,-0.9825,-0.9829,-0.9827,-0.9826,-0.9831,-0.9831,-0.9831,-0.983,0,0,-1.0189,-1.0133,-1.013,-1.0111,-1.0071,-1.0052,-1.0032,-1.0001,-0.9988,-0.9962,-0.9944,-0.991,-0.99,-0.9882,-0.9863,-0.9853,-0.9851,-0.9844,-0.9843,-0.9846,-0.9833,-0.984,-0.9839,-0.9841,-0.9841,-0.9841,-0.9835,0,-1.0186,-1.0147,-1.012,-1.0091,-1.0069,-1.0043,-1.0025,-0.9999,-0.9978,-0.9957,-0.9935,-0.9911,-0.99,-0.9889,-0.9878,-0.9854,-0.9848,-0.9854,-0.9824,-0.9824,-0.9832,-0.9838,-0.9845,-0.9842,-0.9834,-0.9834,-0.9834,0,-1.0178,-1.0151,-1.0119,-1.0081,-1.0071,-1.0055,-1.0024,-1.0004,-0.9974,-0.996,-0.994,-0.992,-0.9898,-0.9892,-0.9862,-0.9867,-0.9853,-0.984,-0.9839,-0.9835,-0.9829,-0.9834,-0.984,-0.9839,-0.9832,-0.9832,-0.9832,0,-1.0196,-1.0152,-1.0127,-1.0112,-1.0067,-1.0057,-1.0038,-1.0007,-0.9991,-0.9964,-0.9953,-0.9926,-0.991,-0.989,-0.9864,-0.9862,-0.9836,-0.9828,-0.9824,-0.9824,-0.9819,-0.9819,-0.9823,-0.9811,-0.9811,-0.9811,-0.9811,0,-1.0195,-1.0177,-1.0134,-1.0119,-1.0098,-1.0068,-1.0049,-1.0028,-1.0001,-0.9982,-0.9959,-0.9942,-0.9909,-0.9888,-0.9868,-0.9845,-0.9839,-0.9827,-0.9822,-0.9829,-0.983,-0.9819,-0.9819,-0.9811,-0.9811,-0.9811,-0.9811,0,-1.0211,-1.0182,-1.0153,-1.0113,-1.0102,-1.0089,-1.0055,-1.0039,-1.0017,-0.9994,-0.9986,-0.9952,-0.9927,-0.9899,-0.9864,-0.9851,-0.9829,-0.9822,-0.9839,-0.9836,-0.9833,-0.9834,-0.9829,-0.9827,-0.9818,-0.9818,-0.9818,0,-1.0213,-1.0198,-1.0155,-1.014,-1.0122,-1.0098,-1.008,-1.0051,-1.0034,-0.9998,-0.9988,-0.996,-0.9936,-0.9896,-0.9869,-0.9842,-0.9834,-0.9834,-0.983,-0.9837,-0.9834,-0.9835,-0.9833,-0.9836,-0.9836,-0.9836,-0.9836,0,-1.0218,-1.0204,-1.0179,-1.0149,-1.0128,-1.0103,-1.0078,-1.0067,-1.0033,-1.0015,-0.9987,-0.9969,-0.9933,-0.9906,-0.9876,-0.9857,-0.9841,-0.9838,-0.9835,-0.9842,-0.9852,-0.9846,-0.9842,-0.9838,-0.9838,-0.9838,-0.9838,-0.9837,-1.0226,-1.0211,-1.0179,-1.0152,-1.013,-1.0106,-1.009,-1.0066,-1.0042,-1.001,-0.9994,-0.9967,-0.9938,-0.9896,-0.9878,-0.9857,-0.9852,-0.9848,-0.9847,-0.9847,-0.9848,-0.9856,-0.9851,-0.9851,-0.9851,-0.9851,-0.9851,0,-1.0229,-1.0207,-1.0183,-1.0147,-1.0126,-1.0112,-1.0083,-1.0067,-1.0043,-1.0016,-0.9993,-0.9962,-0.9936,-0.9906,-0.9879,-0.9867,-0.9859,-0.9861,-0.9861,-0.9857,-0.9855,-0.9859,-0.9868,-0.9868,-0.9868,-0.9868,-0.9868,-0.9868,-1.0228,-1.0203,-1.0186,-1.0149,-1.0127,-1.01,-1.0084,-1.0063,-1.0042,-1.0008,-0.9985,-0.9966,-0.9939,-0.9909,-0.9884,-0.9876,-0.9867,-0.9871,-0.9861,-0.9859,-0.9858,-0.9856,-0.986,-0.9869,-0.9869,-0.9866,-0.9866,-0.9866]}]]